Location: Brotuna
(46.2000°N, 22.6000°E)
Time: 21:20:06
(UTC+00:00)

STARLINK-1247 - Pass Details

Date: 09 April 2020
Orbit: 378 x 381 km, 53.0° (Epoch: 24 May)

Event Time Altitude Azimuth Distance (km) Brightness Sun altitude
Rises 18:10:58 0° 301° (WNW) 2,264 8.9 -10.9°
Reaches altitude 10° 18:13:02 10° 304° (NW) 1,407 7.2 -11.3°
Maximum altitude 18:16:10 66° 27° (NNE) 422 3.0 -11.8°
Enters shadow 18:18:02 22° 106° (ESE) 908 4.1 -12.0°
